Time,TemperatureF,DewpointF,PressureIn,WindDirection,WindDirectionDegrees,WindSpeedMPH,WindSpeedGustMPH,Humidity,HourlyPrecipIn,Conditions,Clouds,dailyrainin,SoftwareType,DateUTC
2013-05-31 00:02:00,44.8,42.0,25.43,West,278,2.0,4.0,89,0.00,,,0.00,weatherlink.com 1.10,2013-05-31 06:02:00,
2013-05-31 00:17:00,43.6,41.0,25.43,West,273,2.0,3.0,90,0.00,,,0.00,weatherlink.com 1.10,2013-05-31 06:17:00,
2013-05-31 00:32:00,42.3,40.0,25.43,WNW,295,2.0,3.0,91,0.00,,,0.00,weatherlink.com 1.10,2013-05-31 06:32:00,
2013-05-31 00:47:00,43.0,41.0,25.43,SW,231,4.0,5.0,93,0.00,,,0.00,weatherlink.com 1.10,2013-05-31 06:47:00,
2013-05-31 01:02:00,42.0,40.0,25.42,SW,218,7.0,8.0,93,0.00,,,0.00,weatherlink.com 1.10,2013-05-31 07:02:00,
2013-05-31 01:17:00,42.6,41.0,25.42,SW,224,6.0,7.0,92,0.00,,,0.00,weatherlink.com 1.10,2013-05-31 07:17:00,
2013-05-31 01:32:00,42.0,40.0,25.41,WSW,243,5.0,7.0,93,0.00,,,0.00,weatherlink.com 1.10,2013-05-31 07:32:00,
2013-05-31 01:47:00,41.9,40.0,25.41,SW,223,8.0,8.0,94,0.00,,,0.00,weatherlink.com 1.10,2013-05-31 07:47:00,
2013-05-31 02:02:00,42.0,40.0,25.41,WSW,256,4.0,7.0,93,0.00,,,0.00,weatherlink.com 1.10,2013-05-31 08:02:00,
2013-05-31 02:17:00,41.5,40.0,25.40,SW,236,6.0,6.0,93,0.00,,,0.00,weatherlink.com 1.10,2013-05-31 08:17:00,
2013-05-31 02:32:00,41.9,40.0,25.40,WSW,248,7.0,9.0,92,0.00,,,0.00,weatherlink.com 1.10,2013-05-31 08:32:00,
2013-05-31 02:47:00,41.7,39.0,25.40,WSW,238,8.0,9.0,91,0.00,,,0.00,weatherlink.com 1.10,2013-05-31 08:47:00,
2013-05-31 03:02:00,41.5,39.0,25.39,WSW,256,6.0,8.0,91,0.00,,,0.00,weatherlink.com 1.10,2013-05-31 09:02:00,
2013-05-31 03:18:00,41.5,39.0,25.39,WSW,249,6.0,9.0,90,0.00,,,0.00,weatherlink.com 1.10,2013-05-31 09:18:00,
2013-05-31 03:33:00,42.0,39.0,25.39,WSW,249,7.0,9.0,88,0.00,,,0.00,weatherlink.com 1.10,2013-05-31 09:33:00,
2013-05-31 03:48:00,42.4,39.0,25.39,West,261,6.0,10.0,87,0.00,,,0.00,weatherlink.com 1.10,2013-05-31 09:48:00,
2013-05-31 04:03:00,43.0,39.0,25.39,West,266,10.0,11.0,85,0.00,,,0.00,weatherlink.com 1.10,2013-05-31 10:03:00,
2013-05-31 04:18:00,42.8,39.0,25.39,West,262,4.0,9.0,85,0.00,,,0.00,weatherlink.com 1.10,2013-05-31 10:18:00,
2013-05-31 04:33:00,42.6,38.0,25.39,West,262,8.0,9.0,85,0.00,,,0.00,weatherlink.com 1.10,2013-05-31 10:33:00,
2013-05-31 04:48:00,42.4,38.0,25.39,WSW,250,7.0,11.0,84,0.00,,,0.00,weatherlink.com 1.10,2013-05-31 10:48:00,
2013-05-31 05:03:00,42.5,38.0,25.39,West,272,8.0,12.0,83,0.00,,,0.00,weatherlink.com 1.10,2013-05-31 11:03:00,
2013-05-31 05:18:00,42.7,37.0,25.39,West,259,6.0,13.0,81,0.00,,,0.00,weatherlink.com 1.10,2013-05-31 11:18:00,
2013-05-31 05:33:00,42.9,37.0,25.39,WSW,240,10.0,15.0,79,0.00,,,0.00,weatherlink.com 1.10,2013-05-31 11:33:00,
2013-05-31 05:48:00,43.5,37.0,25.40,West,260,11.0,15.0,77,0.00,,,0.00,weatherlink.com 1.10,2013-05-31 11:48:00,
2013-05-31 06:03:00,44.6,37.0,25.40,WNW,284,14.0,19.0,74,0.00,,,0.00,weatherlink.com 1.10,2013-05-31 12:03:00,
2013-05-31 06:18:00,45.3,37.0,25.40,SW,233,10.0,18.0,72,0.00,,,0.00,weatherlink.com 1.10,2013-05-31 12:18:00,
2013-05-31 06:33:00,45.6,37.0,25.41,West,278,16.0,17.0,71,0.00,,,0.00,weatherlink.com 1.10,2013-05-31 12:33:00,
2013-05-31 06:48:00,47.7,37.0,25.41,SW,236,11.0,23.0,66,0.00,,,0.00,weatherlink.com 1.10,2013-05-31 12:48:00,
2013-05-31 07:03:00,48.9,36.0,25.42,West,271,12.0,21.0,61,0.00,,,0.00,weatherlink.com 1.10,2013-05-31 13:03:00,
2013-05-31 07:18:00,50.2,37.0,25.42,WSW,239,9.0,21.0,60,0.00,,,0.00,weatherlink.com 1.10,2013-05-31 13:18:00,
2013-05-31 07:33:00,51.7,36.0,25.42,West,270,14.0,22.0,55,0.00,,,0.00,weatherlink.com 1.10,2013-05-31 13:33:00,
2013-05-31 08:03:00,54.2,35.0,25.42,West,270,22.0,26.0,49,0.00,,,0.00,weatherlink.com 1.10,2013-05-31 14:03:00,
2013-05-31 08:18:00,55.3,36.0,25.42,WNW,302,20.0,28.0,49,0.00,,,0.00,weatherlink.com 1.10,2013-05-31 14:18:00,
2013-05-31 08:33:00,56.3,36.0,25.42,WNW,284,21.0,27.0,46,0.00,,,0.00,weatherlink.com 1.10,2013-05-31 14:33:00,
2013-05-31 08:48:00,57.3,35.0,25.42,NW,307,21.0,39.0,43,0.00,,,0.00,weatherlink.com 1.10,2013-05-31 14:48:00,
2013-05-31 09:03:00,58.0,35.0,25.42,WNW,284,25.0,36.0,43,0.00,,,0.00,weatherlink.com 1.10,2013-05-31 15:03:00,
2013-05-31 09:18:00,58.1,35.0,25.41,WNW,294,22.0,38.0,42,0.00,,,0.00,weatherlink.com 1.10,2013-05-31 15:18:00,
2013-05-31 09:34:00,58.5,33.0,25.42,WNW,293,29.0,37.0,39,0.00,,,0.00,weatherlink.com 1.10,2013-05-31 15:34:00,
2013-05-31 09:49:00,57.4,34.0,25.42,WNW,302,19.0,35.0,42,0.00,,,0.00,weatherlink.com 1.10,2013-05-31 15:49:00,
2013-05-31 10:04:00,59.4,36.0,25.42,NW,308,26.0,37.0,42,0.00,,,0.00,weatherlink.com 1.10,2013-05-31 16:04:00,
2013-05-31 10:19:00,59.2,35.0,25.42,NW,304,35.0,42.0,41,0.00,,,0.00,weatherlink.com 1.10,2013-05-31 16:19:00,
2013-05-31 10:34:00,59.4,34.0,25.42,NW,304,34.0,41.0,39,0.00,,,0.00,weatherlink.com 1.10,2013-05-31 16:34:00,
2013-05-31 10:49:00,59.7,34.0,25.43,WNW,296,31.0,42.0,39,0.00,,,0.00,weatherlink.com 1.10,2013-05-31 16:49:00,
2013-05-31 11:04:00,59.9,35.0,25.43,NW,304,21.0,41.0,40,0.00,,,0.00,weatherlink.com 1.10,2013-05-31 17:04:00,
2013-05-31 11:19:00,59.6,36.0,25.43,WNW,288,23.0,33.0,41,0.00,,,0.00,weatherlink.com 1.10,2013-05-31 17:19:00,
2013-05-31 11:34:00,59.8,36.0,25.44,WNW,295,24.0,41.0,41,0.00,,,0.00,weatherlink.com 1.10,2013-05-31 17:34:00,
2013-05-31 11:49:00,59.4,35.0,25.44,WNW,300,23.0,35.0,41,0.00,,,0.00,weatherlink.com 1.10,2013-05-31 17:49:00,
2013-05-31 12:04:00,59.7,37.0,25.44,WNW,297,25.0,37.0,43,0.00,,,0.00,weatherlink.com 1.10,2013-05-31 18:04:00,
2013-05-31 12:19:00,60.0,37.0,25.44,NW,321,27.0,42.0,43,0.00,,,0.00,weatherlink.com 1.10,2013-05-31 18:19:00,
2013-05-31 12:34:00,59.9,38.0,25.44,NW,317,22.0,37.0,44,0.00,,,0.00,weatherlink.com 1.10,2013-05-31 18:34:00,
2013-05-31 12:49:00,60.2,39.0,25.44,NW,304,30.0,35.0,45,0.00,,,0.00,weatherlink.com 1.10,2013-05-31 18:49:00,
2013-05-31 13:04:00,60.2,38.0,25.45,NW,314,22.0,42.0,44,0.00,,,0.00,weatherlink.com 1.10,2013-05-31 19:04:00,
2013-05-31 13:19:00,60.4,39.0,25.45,NW,307,23.0,37.0,45,0.00,,,0.00,weatherlink.com 1.10,2013-05-31 19:19:00,
2013-05-31 13:34:00,60.7,37.0,25.44,NW,324,13.0,40.0,42,0.00,,,0.00,weatherlink.com 1.10,2013-05-31 19:34:00,
2013-05-31 13:49:00,61.3,37.0,25.44,NW,325,19.0,30.0,40,0.00,,,0.00,weatherlink.com 1.10,2013-05-31 19:49:00,
2013-05-31 14:04:00,62.3,36.0,25.44,WNW,302,24.0,37.0,38,0.00,,,0.00,weatherlink.com 1.10,2013-05-31 20:04:00,
2013-05-31 14:19:00,63.3,36.0,25.44,WNW,301,30.0,41.0,37,0.00,,,0.00,weatherlink.com 1.10,2013-05-31 20:19:00,
2013-05-31 14:34:00,63.4,34.0,25.44,West,271,20.0,44.0,34,0.00,,,0.00,weatherlink.com 1.10,2013-05-31 20:34:00,
2013-05-31 14:49:00,64.3,39.0,25.44,NW,311,16.0,40.0,39,0.00,,,0.00,weatherlink.com 1.10,2013-05-31 20:49:00,
2013-05-31 15:04:00,64.5,37.0,25.44,NW,323,16.0,31.0,36,0.00,,,0.00,weatherlink.com 1.10,2013-05-31 21:04:00,
2013-05-31 15:19:00,63.1,38.0,25.45,NW,315,20.0,34.0,39,0.00,,,0.00,weatherlink.com 1.10,2013-05-31 21:19:00,
2013-05-31 15:34:00,64.2,37.0,25.45,WNW,302,24.0,38.0,36,0.00,,,0.00,weatherlink.com 1.10,2013-05-31 21:34:00,
2013-05-31 15:49:00,63.6,36.0,25.45,NNW,329,25.0,41.0,36,0.00,,,0.00,weatherlink.com 1.10,2013-05-31 21:49:00,
2013-05-31 16:04:00,63.6,39.0,25.46,NNW,328,18.0,38.0,40,0.00,,,0.00,weatherlink.com 1.10,2013-05-31 22:04:00,
2013-05-31 16:19:00,62.0,38.0,25.46,NNW,339,27.0,37.0,42,0.00,,,0.00,weatherlink.com 1.10,2013-05-31 22:19:00,
2013-05-31 16:34:00,62.4,39.0,25.47,NW,312,17.0,36.0,42,0.00,,,0.00,weatherlink.com 1.10,2013-05-31 22:34:00,
2013-05-31 16:49:00,61.4,40.0,25.48,NNW,334,19.0,35.0,46,0.00,,,0.00,weatherlink.com 1.10,2013-05-31 22:49:00,
2013-05-31 17:04:00,60.0,38.0,25.49,NNW,332,27.0,36.0,45,0.00,,,0.00,weatherlink.com 1.10,2013-05-31 23:04:00,
2013-05-31 17:19:00,58.2,39.0,25.49,NNW,327,21.0,40.0,49,0.00,,,0.00,weatherlink.com 1.10,2013-05-31 23:19:00,
2013-05-31 17:34:00,57.0,40.0,25.50,NNW,338,21.0,33.0,54,0.00,,,0.00,weatherlink.com 1.10,2013-05-31 23:34:00,
2013-05-31 17:50:00,56.2,40.0,25.50,NNW,332,23.0,34.0,54,0.00,,,0.00,weatherlink.com 1.10,2013-05-31 23:50:00,
2013-05-31 18:04:00,55.4,40.0,25.51,NW,322,24.0,36.0,57,0.00,,,0.00,weatherlink.com 1.10,2013-06-01 00:04:00,
2013-05-31 18:19:00,55.0,41.0,25.51,NNW,328,24.0,34.0,60,0.00,,,0.00,weatherlink.com 1.10,2013-06-01 00:19:00,
2013-05-31 18:34:00,54.3,40.0,25.51,NW,323,24.0,34.0,60,0.00,,,0.00,weatherlink.com 1.10,2013-06-01 00:34:00,
2013-05-31 18:49:00,53.8,40.0,25.52,NNW,330,26.0,33.0,61,0.00,,,0.00,weatherlink.com 1.10,2013-06-01 00:49:00,
2013-05-31 19:04:00,53.1,41.0,25.51,NW,316,31.0,41.0,63,0.00,,,0.00,weatherlink.com 1.10,2013-06-01 01:04:00,
2013-05-31 19:19:00,52.5,41.0,25.52,NNW,329,31.0,36.0,65,0.00,,,0.00,weatherlink.com 1.10,2013-06-01 01:19:00,
2013-05-31 19:34:00,52.2,41.0,25.52,NNW,334,20.0,32.0,66,0.00,,,0.00,weatherlink.com 1.10,2013-06-01 01:34:00,
2013-05-31 19:49:00,52.2,40.0,25.53,NNW,332,29.0,39.0,64,0.00,,,0.00,weatherlink.com 1.10,2013-06-01 01:49:00,
2013-05-31 20:04:00,52.1,40.0,25.53,NNW,332,27.0,45.0,64,0.00,,,0.00,weatherlink.com 1.10,2013-06-01 02:04:00,
2013-05-31 20:20:00,51.6,40.0,25.54,NNW,333,23.0,36.0,66,0.00,,,0.00,weatherlink.com 1.10,2013-06-01 02:20:00,
2013-05-31 20:35:00,50.6,42.0,25.55,NW,312,18.0,32.0,72,0.00,,,0.00,weatherlink.com 1.10,2013-06-01 02:35:00,
2013-05-31 20:50:00,49.9,42.0,25.55,NNW,345,26.0,36.0,74,0.00,,,0.00,weatherlink.com 1.10,2013-06-01 02:50:00,
2013-05-31 21:05:00,49.4,41.0,25.55,NNW,327,23.0,35.0,74,0.00,,,0.00,weatherlink.com 1.10,2013-06-01 03:05:00,
2013-05-31 21:20:00,48.8,42.0,25.56,NNW,333,24.0,30.0,77,0.00,,,0.00,weatherlink.com 1.10,2013-06-01 03:20:00,
2013-05-31 21:35:00,48.6,42.0,25.56,NW,316,24.0,40.0,79,0.00,,,0.00,weatherlink.com 1.10,2013-06-01 03:35:00,
2013-05-31 21:50:00,48.3,42.0,25.57,NW,317,28.0,32.0,80,0.00,,,0.00,weatherlink.com 1.10,2013-06-01 03:50:00,
2013-05-31 22:05:00,48.0,43.0,25.57,NW,326,23.0,38.0,82,0.00,,,0.00,weatherlink.com 1.10,2013-06-01 04:05:00,
2013-05-31 22:20:00,47.1,43.0,25.57,NW,325,33.0,37.0,86,0.00,,,0.00,weatherlink.com 1.10,2013-06-01 04:20:00,
2013-05-31 22:35:00,46.7,43.0,25.57,NW,326,31.0,41.0,87,0.00,,,0.00,weatherlink.com 1.10,2013-06-01 04:35:00,
2013-05-31 22:50:00,45.9,44.0,25.57,NNW,338,25.0,41.0,91,0.01,,,0.01,weatherlink.com 1.10,2013-06-01 04:50:00,
2013-05-31 23:20:00,45.7,43.0,25.59,NNW,333,30.0,37.0,91,0.03,,,0.03,weatherlink.com 1.10,2013-06-01 05:20:00,
2013-05-31 23:35:00,45.8,43.0,25.59,NW,321,31.0,40.0,90,0.04,,,0.04,weatherlink.com 1.10,2013-06-01 05:35:00,
2013-05-31 23:50:00,45.8,43.0,25.60,NW,324,27.0,37.0,90,0.04,,,0.05,weatherlink.com 1.10,2013-06-01 05:50:00,